Terug naar catalogus

QIANFAN-173

ActiefCommunicatiePO
NORAD 69390·PAYLOAD·🇨🇳 China

Gelanceerd Jun 4, 2026 vanaf Taiyuan Satellite Launch Center

Loading…

Volgende Passages (komende 24 uur)

TLE

VersSource: Space-Track

Epoch: Sep 14, 2026, 22:21 UTC

1 69390U 26124J   26257.93133926  .00000138  00000-0  19465-3 0  9990
2 69390  89.0064 352.5497 0001640  99.8780 260.2557 13.51021696 14177

Volg QIANFAN-173 in realtime met AllMySat

Download on the App Store